カタログに戻る

LPNTSAT-001

運用中ナビゲーションSSO
NORAD 68408·PAYLOAD·🇪🇺 EU

打ち上げ Mar 28, 2026 から Rocket Lab Launch Complex 1

Loading…

次のパス (今後24時間)

TLE

最新Source: Space-Track

元期: Sep 13, 2026, 15:04 UTC

1 68408U 26065A   26256.62827672  .00002100  00000-0  10348-3 0  9998
2 68408  97.3864 135.2198 0017827  58.8396 301.4584 15.18908250 25683

AllMySatでLPNTSAT-001をリアルタイム追跡

Download on the App Store